CDT,Max TemperatureF,Mean TemperatureF,Min TemperatureF,Max Dew PointF,MeanDew PointF,Min DewpointF,Max Humidity, Mean Humidity, Min Humidity, Max Sea Level PressureIn, Mean Sea Level PressureIn, Min Sea Level PressureIn, Max VisibilityMiles, Mean VisibilityMiles, Min VisibilityMiles, Max Wind SpeedMPH, Mean Wind SpeedMPH, Max Gust SpeedMPH,PrecipitationIn, CloudCover, Events, WindDirDegrees
2012-4-1,90,77,63,66,62,60,93,66,38,29.77,29.69,29.62,10,8,4,16,6,23,0.00,0,,177
2012-4-2,89,78,67,64,60,56,78,56,34,29.75,29.69,29.63,10,10,10,26,8,39,0.00,1,,156
2012-4-3,83,74,64,65,61,57,93,72,51,29.95,29.84,29.74,10,9,1,37,7,47,0.84,6,Rain-Thunderstorm,84
2012-4-4,75,67,58,61,57,50,87,67,46,29.83,29.78,29.73,10,10,10,18,6,24,0.00,5,,256
2012-4-5,73,63,53,54,50,47,80,64,43,29.94,29.82,29.74,10,10,10,18,8,20,0.00,1,,283
2012-4-6,74,65,56,53,51,46,80,63,46,30.12,30.03,29.96,10,10,10,14,7,16,0.00,3,,71
2012-4-7,76,65,53,60,50,41,73,58,43,30.25,30.15,30.09,10,10,10,17,8,22,0.01,2,Rain,66
2012-4-8,67,62,57,58,53,46,84,68,52,30.33,30.27,30.22,10,10,10,14,6,,0.00,6,,82
2012-4-9,80,68,56,58,55,52,86,64,42,30.22,30.14,30.04,10,10,9,9,2,12,0.00,4,,67
2012-4-10,78,68,58,63,58,55,90,70,50,30.13,30.08,30.04,10,10,7,10,4,14,0.00,5,,67
2012-4-11,67,60,53,56,49,41,83,62,40,30.27,30.17,30.09,10,9,1,16,7,21,0.70,6,Rain-Thunderstorm,92
2012-4-12,71,62,52,50,45,38,89,65,40,30.17,30.10,30.01,10,10,10,16,9,21,0.00,4,,87
2012-4-13,77,67,57,62,55,47,72,64,56,30.00,29.96,29.89,10,10,10,16,7,24,0.00,7,,122
2012-4-14,81,76,71,65,62,57,73,61,48,29.94,29.85,29.72,10,10,10,20,9,25,0.00,8,,152
2012-4-15,77,66,54,66,58,47,86,68,50,29.84,29.73,29.68,10,8,1,21,9,31,0.44,7,Rain-Thunderstorm,200
2012-4-16,74,62,50,51,47,43,89,62,35,30.21,30.11,29.88,10,10,7,13,5,16,0.00,0,,285
2012-4-17,76,63,50,51,47,45,83,59,35,30.29,30.23,30.18,10,10,10,15,5,20,0.00,0,,80
2012-4-18,79,64,49,50,47,42,86,57,28,30.22,30.12,30.00,10,10,10,12,5,17,0.00,0,,91
2012-4-19,83,68,53,53,49,47,83,56,28,30.00,29.89,29.75,10,10,10,16,6,20,0.00,0,,109
2012-4-20,64,55,46,61,51,42,93,75,57,30.04,29.89,29.76,10,9,2,22,9,29,0.31,6,Rain,324
2012-4-21,72,58,43,47,43,39,89,64,38,30.06,30.01,29.94,10,10,2,14,4,22,0.00,0,,264
2012-4-22,71,60,49,48,41,34,86,57,28,30.18,30.05,29.98,10,10,10,26,11,33,0.00,0,,321
2012-4-23,71,59,46,45,40,35,76,52,28,30.25,30.15,30.03,10,10,10,16,5,20,0.00,0,,307
2012-4-24,84,66,48,53,48,44,86,57,28,30.04,29.90,29.75,10,10,10,20,6,24,0.00,0,,205
2012-4-25,89,75,60,65,60,54,84,64,43,29.80,29.73,29.67,10,10,8,20,6,24,0.04,0,Rain-Thunderstorm,190
2012-4-26,87,77,66,68,65,62,87,66,45,29.87,29.82,29.77,10,9,4,14,4,18,0.00,1,,93
2012-4-27,86,79,71,66,63,58,84,61,37,29.85,29.77,29.69,10,9,5,21,8,29,0.00,2,,126
2012-4-28,84,76,67,64,62,59,81,64,47,29.92,29.84,29.77,10,10,9,14,5,20,0.00,5,,136
2012-4-29,85,78,70,65,63,59,79,64,48,30.00,29.94,29.90,10,10,10,15,5,18,0.00,2,,172
2012-4-30,80,72,64,67,62,59,87,73,58,30.06,29.99,29.89,10,8,1,32,5,38,0.65,5,Rain-Thunderstorm,97